QFA550 YSSY-YBBN

Flight info

Callsign QFA550
Flight time 1h 8m
Altitude 35000
Route TESAT H252 OLSEM Y193 BANDA H252 BN
Aircraft A21N/M-SDE2E3FGHIRWXY/LB1

Departure

Time 2026-04-24 09:15
Airport Sydney Kingsford Smith International Airport (YSSY)

Arrival

Time 2026-04-24 10:23
Airport Brisbane International Airport (YBBN)
Time Latitude Longitude Altitude Speed Heading
2026-04-24 08:54 -33.93112 151.17715 28 ft 0 kts 190°
2026-04-24 09:07 -33.93111 151.17715 28 ft 0 kts 190°
2026-04-24 09:08 -33.93102 151.17717 28 ft 2 kts 190°
2026-04-24 09:08 -33.93088 151.17720 28 ft 2 kts 190°
2026-04-24 09:08 -33.93074 151.17723 28 ft 2 kts 190°
2026-04-24 09:08 -33.93059 151.17726 28 ft 2 kts 217°
2026-04-24 09:09 -33.93051 151.17741 28 ft 2 kts 267°
2026-04-24 09:09 -33.93052 151.17752 28 ft 1 kts 294°
2026-04-24 09:09 -33.93055 151.17758 28 ft 0 kts 292°
2026-04-24 09:12 -33.93052 151.17749 28 ft 2 kts 292°
2026-04-24 09:12 -33.93040 151.17717 28 ft 6 kts 296°
2026-04-24 09:12 -33.93018 151.17662 28 ft 7 kts 289°
2026-04-24 09:13 -33.93007 151.17596 28 ft 8 kts 281°
2026-04-24 09:13 -33.92995 151.17522 28 ft 9 kts 281°
2026-04-24 09:13 -33.92981 151.17441 28 ft 8 kts 282°
2026-04-24 09:13 -33.92970 151.17375 28 ft 8 kts 282°
2026-04-24 09:14 -33.92958 151.17303 28 ft 9 kts 279°
2026-04-24 09:14 -33.92963 151.17223 28 ft 10 kts 248°
2026-04-24 09:14 -33.93023 151.17181 28 ft 11 kts 174°
2026-04-24 09:14 -33.93226 151.17233 28 ft 65 kts 168°
2026-04-24 09:15 -33.93932 151.17416 29 ft 139 kts 167°
2026-04-24 09:15 -33.95057 151.17705 281 ft 177 kts 169°
2026-04-24 09:15 -33.96232 151.17992 1064 ft 176 kts 167°
2026-04-24 09:15 -33.97431 151.18256 1794 ft 178 kts 166°
2026-04-24 09:16 -33.98702 151.18518 2340 ft 192 kts 167°
2026-04-24 09:16 -34.00067 151.18797 2837 ft 209 kts 167°
2026-04-24 09:16 -34.01556 151.19110 3336 ft 226 kts 167°
2026-04-24 09:16 -34.03142 151.19665 3724 ft 247 kts 147°
2026-04-24 09:17 -34.04385 151.21127 4290 ft 256 kts 117°
2026-04-24 09:17 -34.04859 151.23157 5068 ft 259 kts 89°
2026-04-24 09:17 -34.04442 151.25246 5941 ft 261 kts 62°
2026-04-24 09:17 -34.03298 151.26892 6751 ft 266 kts 40°
2026-04-24 09:18 -34.01802 151.28230 7564 ft 270 kts 38°
2026-04-24 09:18 -34.00281 151.29540 8363 ft 274 kts 38°
2026-04-24 09:18 -33.98730 151.30878 9165 ft 277 kts 38°
2026-04-24 09:18 -33.97163 151.32236 9927 ft 280 kts 39°
2026-04-24 09:19 -33.95569 151.33627 10578 ft 288 kts 39°
2026-04-24 09:19 -33.93913 151.35077 10958 ft 304 kts 39°
2026-04-24 09:19 -33.92152 151.36621 11295 ft 322 kts 39°
2026-04-24 09:19 -33.90303 151.38243 11666 ft 337 kts 38°
2026-04-24 09:20 -33.88372 151.39931 12306 ft 343 kts 38°
2026-04-24 09:20 -33.86456 151.41603 13034 ft 346 kts 38°
2026-04-24 09:20 -33.84495 151.43317 13707 ft 350 kts 38°
2026-04-24 09:20 -33.82504 151.45056 14361 ft 354 kts 38°
2026-04-24 09:21 -33.80523 151.46782 15010 ft 357 kts 39°
2026-04-24 09:21 -33.78502 151.48544 15683 ft 360 kts 38°
2026-04-24 09:21 -33.76481 151.50307 16330 ft 363 kts 39°
2026-04-24 09:21 -33.74435 151.52092 16964 ft 366 kts 39°
2026-04-24 09:22 -33.72374 151.53886 17574 ft 369 kts 39°
2026-04-24 09:22 -33.70301 151.55688 18177 ft 371 kts 39°
2026-04-24 09:22 -33.68202 151.57516 18762 ft 375 kts 39°
2026-04-24 09:22 -33.66074 151.59366 19303 ft 379 kts 39°
2026-04-24 09:23 -33.63807 151.61259 19860 ft 384 kts 37°
2026-04-24 09:23 -33.61500 151.63078 20395 ft 388 kts 37°
2026-04-24 09:23 -33.59137 151.64931 20926 ft 392 kts 37°
2026-04-24 09:23 -33.56812 151.66753 21439 ft 396 kts 36°
2026-04-24 09:24 -33.54419 151.68628 21959 ft 399 kts 36°
2026-04-24 09:24 -33.52007 151.70494 22455 ft 404 kts 34°
2026-04-24 09:24 -33.49509 151.72089 22911 ft 410 kts 28°
2026-04-24 09:24 -33.46759 151.73396 23373 ft 417 kts 21°
2026-04-24 09:25 -33.43863 151.74405 23836 ft 422 kts 18°
2026-04-24 09:25 -33.40936 151.75334 24293 ft 425 kts 18°
2026-04-24 09:25 -33.37983 151.76265 24807 ft 426 kts 18°
2026-04-24 09:25 -33.35038 151.77206 25306 ft 427 kts 18°
2026-04-24 09:26 -33.32097 151.78154 25737 ft 430 kts 18°
2026-04-24 09:26 -33.29140 151.79108 26136 ft 433 kts 18°
2026-04-24 09:26 -33.26219 151.80052 26531 ft 435 kts 18°
2026-04-24 09:26 -33.23208 151.81024 26939 ft 437 kts 18°
2026-04-24 09:27 -33.20161 151.82007 27343 ft 439 kts 18°
2026-04-24 09:27 -33.17106 151.82991 27725 ft 441 kts 18°
2026-04-24 09:27 -33.14043 151.83975 28045 ft 444 kts 18°
2026-04-24 09:27 -33.10980 151.84961 28385 ft 446 kts 18°
2026-04-24 09:28 -33.07944 151.85936 28735 ft 448 kts 19°
2026-04-24 09:28 -33.04844 151.86932 29091 ft 450 kts 18°
2026-04-24 09:28 -33.01775 151.87917 29409 ft 452 kts 18°
2026-04-24 09:28 -32.98633 151.88924 29733 ft 454 kts 19°
2026-04-24 09:29 -32.95473 151.89935 30049 ft 455 kts 19°
2026-04-24 09:29 -32.92342 151.90938 30364 ft 457 kts 19°
2026-04-24 09:29 -32.89173 151.91952 30756 ft 456 kts 19°
2026-04-24 09:29 -32.86071 151.92944 31112 ft 455 kts 19°
2026-04-24 09:30 -32.82900 151.93957 31417 ft 456 kts 19°
2026-04-24 09:30 -32.78774 151.95274 31788 ft 457 kts 19°
2026-04-24 09:30 -32.76648 151.95953 31986 ft 457 kts 19°
2026-04-24 09:30 -32.73436 151.96977 32286 ft 457 kts 19°
2026-04-24 09:31 -32.70298 151.97977 32573 ft 457 kts 19°
2026-04-24 09:31 -32.67115 151.98991 32833 ft 458 kts 19°
2026-04-24 09:31 -32.63982 151.99988 33069 ft 459 kts 19°
2026-04-24 09:31 -32.60879 152.00975 33315 ft 459 kts 19°
2026-04-24 09:32 -32.57695 152.01987 33555 ft 460 kts 19°
2026-04-24 09:32 -32.54503 152.03000 33747 ft 461 kts 19°
2026-04-24 09:32 -32.51270 152.04025 33924 ft 463 kts 19°
2026-04-24 09:32 -32.48074 152.05037 34101 ft 464 kts 19°
2026-04-24 09:33 -32.44881 152.06049 34264 ft 466 kts 19°
2026-04-24 09:33 -32.41666 152.07066 34419 ft 467 kts 18°
2026-04-24 09:33 -32.38406 152.08098 34571 ft 468 kts 19°
2026-04-24 09:33 -32.35246 152.09097 34708 ft 469 kts 18°
2026-04-24 09:34 -32.32033 152.10110 34862 ft 470 kts 18°
2026-04-24 09:34 -32.28751 152.11147 34997 ft 471 kts 18°
2026-04-24 09:34 -32.25429 152.12193 35134 ft 472 kts 18°
2026-04-24 09:34 -32.22173 152.13220 35266 ft 473 kts 18°
2026-04-24 09:35 -32.18926 152.14241 35397 ft 474 kts 18°
2026-04-24 09:35 -32.15622 152.15280 35422 ft 475 kts 18°
2026-04-24 09:35 -32.09135 152.17317 35426 ft 476 kts 18°
2026-04-24 09:36 -32.02506 152.19397 35433 ft 476 kts 18°
2026-04-24 09:36 -31.96152 152.21388 35442 ft 476 kts 18°
2026-04-24 09:37 -31.89617 152.23433 35439 ft 475 kts 18°
2026-04-24 09:37 -31.83054 152.25484 35429 ft 475 kts 18°
2026-04-24 09:38 -31.76516 152.27522 35431 ft 475 kts 19°
2026-04-24 09:38 -31.70032 152.29541 35431 ft 474 kts 18°
2026-04-24 09:39 -31.63444 152.31590 35431 ft 474 kts 19°
2026-04-24 09:39 -31.56837 152.33643 35432 ft 474 kts 19°
2026-04-24 09:40 -31.50332 152.35660 35437 ft 474 kts 19°
2026-04-24 09:40 -31.43830 152.37676 35439 ft 475 kts 19°
2026-04-24 09:41 -31.37188 152.39729 35434 ft 475 kts 19°
2026-04-24 09:41 -31.30636 152.41750 35432 ft 474 kts 19°
2026-04-24 09:42 -31.24169 152.43745 35438 ft 474 kts 19°
2026-04-24 09:42 -31.17588 152.45772 35431 ft 474 kts 19°
2026-04-24 09:43 -31.11014 152.47794 35427 ft 473 kts 19°
2026-04-24 09:43 -31.04459 152.49806 35420 ft 473 kts 19°
2026-04-24 09:44 -30.97931 152.51807 35439 ft 474 kts 19°
2026-04-24 09:44 -30.91440 152.53796 35413 ft 474 kts 18°
2026-04-24 09:45 -30.84872 152.55801 35408 ft 474 kts 19°
2026-04-24 09:45 -30.78385 152.57869 35421 ft 472 kts 21°
2026-04-24 09:46 -30.71950 152.60205 35382 ft 472 kts 21°
2026-04-24 09:46 -30.65434 152.62578 35381 ft 473 kts 21°
2026-04-24 09:47 -30.58981 152.64916 35416 ft 473 kts 21°
2026-04-24 09:47 -30.52600 152.67224 35405 ft 473 kts 20°
2026-04-24 09:48 -30.46141 152.69559 35379 ft 473 kts 20°
2026-04-24 09:48 -30.39608 152.71918 35394 ft 474 kts 20°
2026-04-24 09:49 -30.33130 152.74249 35394 ft 475 kts 20°
2026-04-24 09:49 -30.26646 152.76582 35419 ft 474 kts 19°
2026-04-24 09:50 -30.20269 152.78874 35414 ft 475 kts 19°
2026-04-24 09:50 -30.13714 152.81226 35390 ft 475 kts 19°
2026-04-24 09:51 -30.07295 152.83524 35395 ft 473 kts 19°
2026-04-24 09:51 -30.00886 152.85814 35609 ft 473 kts 19°
2026-04-24 09:52 -29.97633 152.86978 35503 ft 472 kts 19°
2026-04-24 09:52 -29.94409 152.88130 35452 ft 470 kts 19°
2026-04-24 09:52 -29.87958 152.90431 35408 ft 471 kts 19°
2026-04-24 09:53 -29.81630 152.92690 35379 ft 472 kts 18°
2026-04-24 09:53 -29.75416 152.94900 35377 ft 472 kts 18°
2026-04-24 09:54 -29.69093 152.97145 35281 ft 472 kts 18°
2026-04-24 09:54 -29.65879 152.98283 35058 ft 470 kts 18°
2026-04-24 09:54 -29.62687 152.99417 34826 ft 467 kts 18°
2026-04-24 09:55 -29.59561 153.00525 34621 ft 466 kts 18°
2026-04-24 09:55 -29.56485 153.01614 34422 ft 463 kts 18°
2026-04-24 09:55 -29.53446 153.02690 34212 ft 460 kts 18°
2026-04-24 09:55 -29.50351 153.03786 34000 ft 460 kts 18°
2026-04-24 09:56 -29.47321 153.04858 33765 ft 459 kts 18°
2026-04-24 09:56 -29.44263 153.05940 33530 ft 459 kts 18°
2026-04-24 09:56 -29.41218 153.07014 33296 ft 459 kts 18°
2026-04-24 09:56 -29.38174 153.08087 33064 ft 458 kts 18°
2026-04-24 09:57 -29.35102 153.09170 32823 ft 457 kts 18°
2026-04-24 09:57 -29.32071 153.10240 32586 ft 457 kts 18°
2026-04-24 09:57 -29.29051 153.11305 32351 ft 456 kts 18°
2026-04-24 09:57 -29.26002 153.12380 32114 ft 456 kts 18°
2026-04-24 09:58 -29.22997 153.13437 31881 ft 455 kts 18°
2026-04-24 09:58 -29.19976 153.14500 31641 ft 455 kts 18°
2026-04-24 09:58 -29.16921 153.15575 31289 ft 455 kts 18°
2026-04-24 09:58 -29.13878 153.16641 30835 ft 454 kts 18°
2026-04-24 09:59 -29.10899 153.17685 30282 ft 453 kts 19°
2026-04-24 09:59 -29.07885 153.18744 29657 ft 451 kts 19°
2026-04-24 09:59 -29.04895 153.19792 29241 ft 446 kts 19°
2026-04-24 09:59 -29.01938 153.20830 28933 ft 444 kts 19°
2026-04-24 10:00 -28.98975 153.21869 28661 ft 443 kts 19°
2026-04-24 10:00 -28.96040 153.22897 28392 ft 441 kts 19°
2026-04-24 10:00 -28.93100 153.23926 28122 ft 439 kts 19°
2026-04-24 10:00 -28.90199 153.24940 27854 ft 438 kts 19°
2026-04-24 10:01 -28.87266 153.25966 27583 ft 437 kts 19°
2026-04-24 10:01 -28.84389 153.26970 27316 ft 435 kts 19°
2026-04-24 10:01 -28.81492 153.27982 27047 ft 433 kts 19°
2026-04-24 10:01 -28.78612 153.28987 26778 ft 432 kts 19°
2026-04-24 10:02 -28.75738 153.29988 26509 ft 430 kts 19°
2026-04-24 10:02 -28.72900 153.30978 26244 ft 428 kts 19°
2026-04-24 10:02 -28.70038 153.31976 25975 ft 427 kts 19°
2026-04-24 10:02 -28.68217 153.32610 25803 ft 425 kts 19°
2026-04-24 10:03 -28.67226 153.32954 25710 ft 425 kts 19°
2026-04-24 10:03 -28.64515 153.33897 25454 ft 423 kts 19°
2026-04-24 10:03 -28.61715 153.34871 25188 ft 421 kts 19°
2026-04-24 10:03 -28.58902 153.35847 24918 ft 420 kts 19°
2026-04-24 10:04 -28.56102 153.36821 24637 ft 418 kts 19°
2026-04-24 10:04 -28.53351 153.37776 24352 ft 416 kts 19°
2026-04-24 10:04 -28.50568 153.38742 24018 ft 414 kts 20°
2026-04-24 10:04 -28.47832 153.39691 23606 ft 412 kts 20°
2026-04-24 10:05 -28.45099 153.40637 23152 ft 409 kts 20°
2026-04-24 10:05 -28.42398 153.41573 22694 ft 406 kts 20°
2026-04-24 10:05 -28.39700 153.42506 22228 ft 403 kts 20°
2026-04-24 10:05 -28.37021 153.43434 21760 ft 400 kts 20°
2026-04-24 10:06 -28.34389 153.44345 21288 ft 397 kts 20°
2026-04-24 10:06 -28.29138 153.46159 20345 ft 392 kts 20°
2026-04-24 10:06 -28.26495 153.47070 19852 ft 390 kts 20°
2026-04-24 10:07 -28.23927 153.47957 19371 ft 388 kts 20°
2026-04-24 10:07 -28.21320 153.48859 18900 ft 386 kts 20°
2026-04-24 10:07 -28.18738 153.49687 18415 ft 386 kts 15°
2026-04-24 10:07 -28.16045 153.50014 17861 ft 391 kts
2026-04-24 10:08 -28.13323 153.49736 17273 ft 395 kts 354°
2026-04-24 10:08 -28.10595 153.49185 16676 ft 396 kts 352°
2026-04-24 10:08 -28.07871 153.48592 16128 ft 395 kts 352°
2026-04-24 10:08 -28.05181 153.48006 15624 ft 393 kts 352°
2026-04-24 10:09 -28.02517 153.47437 15142 ft 390 kts 352°
2026-04-24 10:09 -27.99832 153.46869 14658 ft 387 kts 353°
2026-04-24 10:09 -27.97207 153.46320 14195 ft 383 kts 353°
2026-04-24 10:09 -27.94568 153.45772 13727 ft 381 kts 353°
2026-04-24 10:10 -27.91970 153.45235 13255 ft 378 kts 353°
2026-04-24 10:10 -27.89397 153.44702 12786 ft 376 kts 353°
2026-04-24 10:10 -27.86833 153.44173 12306 ft 373 kts 353°
2026-04-24 10:10 -27.84281 153.43646 11841 ft 371 kts 353°
2026-04-24 10:11 -27.81754 153.43124 11348 ft 369 kts 353°
2026-04-24 10:11 -27.79232 153.42606 10893 ft 366 kts 353°
2026-04-24 10:11 -27.76767 153.42094 10682 ft 355 kts 353°
2026-04-24 10:11 -27.74384 153.41602 10477 ft 344 kts 354°
2026-04-24 10:12 -27.72045 153.41118 10358 ft 331 kts 354°
2026-04-24 10:12 -27.69817 153.40659 10248 ft 319 kts 354°
2026-04-24 10:12 -27.67670 153.40216 9927 ft 315 kts 354°
2026-04-24 10:12 -27.65517 153.39775 9562 ft 312 kts 354°
2026-04-24 10:13 -27.63387 153.39337 9200 ft 310 kts 354°
2026-04-24 10:13 -27.61266 153.38872 8894 ft 305 kts 353°
2026-04-24 10:13 -27.59196 153.38409 8516 ft 304 kts 353°
2026-04-24 10:13 -27.57118 153.37942 8151 ft 301 kts 353°
2026-04-24 10:14 -27.55078 153.37486 7818 ft 299 kts 353°
2026-04-24 10:14 -27.53018 153.37025 7459 ft 298 kts 353°
2026-04-24 10:14 -27.51014 153.36580 7118 ft 295 kts 353°
2026-04-24 10:14 -27.48979 153.36128 6759 ft 293 kts 353°
2026-04-24 10:15 -27.46981 153.35683 6413 ft 291 kts 354°
2026-04-24 10:15 -27.45002 153.35245 6074 ft 289 kts 353°
2026-04-24 10:15 -27.43038 153.34810 5744 ft 287 kts 353°
2026-04-24 10:15 -27.41083 153.34376 5413 ft 285 kts 353°
2026-04-24 10:16 -27.39141 153.33945 5126 ft 280 kts 353°
2026-04-24 10:16 -27.37268 153.33527 4971 ft 267 kts 353°
2026-04-24 10:16 -27.35482 153.33127 4865 ft 255 kts 354°
2026-04-24 10:16 -27.33767 153.32782 4585 ft 249 kts 356°
2026-04-24 10:17 -27.32067 153.32468 4293 ft 241 kts 356°
2026-04-24 10:17 -27.30477 153.32169 4206 ft 222 kts 356°
2026-04-24 10:17 -27.28992 153.31883 4060 ft 211 kts 355°
2026-04-24 10:17 -27.27679 153.31258 3914 ft 204 kts 319°
2026-04-24 10:18 -27.26980 153.29938 3697 ft 195 kts 281°
2026-04-24 10:18 -27.26756 153.28484 3466 ft 185 kts 274°
2026-04-24 10:18 -27.26594 153.27051 3251 ft 184 kts 274°
2026-04-24 10:18 -27.26484 153.25623 3048 ft 181 kts 258°
2026-04-24 10:19 -27.26946 153.24391 2916 ft 169 kts 228°
2026-04-24 10:19 -27.27623 153.23306 2701 ft 171 kts 226°
2026-04-24 10:19 -27.28297 153.22215 2444 ft 167 kts 227°
2026-04-24 10:19 -27.28943 153.21133 2243 ft 167 kts 228°
2026-04-24 10:20 -27.29578 153.20044 2022 ft 167 kts 229°
2026-04-24 10:20 -27.30189 153.18974 1838 ft 157 kts 229°
2026-04-24 10:20 -27.30763 153.17963 1613 ft 151 kts 226°
2026-04-24 10:20 -27.31436 153.17078 1487 ft 144 kts 214°
2026-04-24 10:21 -27.32222 153.16406 1386 ft 140 kts 202°
2026-04-24 10:21 -27.33082 153.15904 1226 ft 138 kts 199°
2026-04-24 10:21 -27.33955 153.15442 980 ft 137 kts 199°
2026-04-24 10:21 -27.34801 153.14958 681 ft 136 kts 202°
2026-04-24 10:22 -27.35654 153.14467 457 ft 136 kts 202°
2026-04-24 10:22 -27.36498 153.13995 230 ft 135 kts 205°
2026-04-24 10:22 -27.37324 153.13519 94 ft 134 kts 205°
2026-04-24 10:22 -27.38140 153.13040 20 ft 122 kts 206°
2026-04-24 10:23 -27.38779 153.12680 20 ft 77 kts 208°
2026-04-24 10:23 -27.39160 153.12466 22 ft 54 kts 207°
2026-04-24 10:23 -27.39466 153.12288 22 ft 35 kts 207°
2026-04-24 10:23 -27.39583 153.12160 22 ft 22 kts 270°
2026-04-24 10:24 -27.39542 153.12036 22 ft 13 kts 297°
2026-04-24 10:24 -27.39491 153.11948 22 ft 13 kts 328°
2026-04-24 10:24 -27.39403 153.11960 22 ft 13 kts 25°
2026-04-24 10:24 -27.39315 153.12007 22 ft 14 kts 27°
2026-04-24 10:25 -27.39225 153.12061 22 ft 14 kts 27°
2026-04-24 10:25 -27.39132 153.12114 22 ft 15 kts 27°
2026-04-24 10:25 -27.39024 153.12177 22 ft 18 kts 27°
2026-04-24 10:25 -27.38904 153.12244 22 ft 19 kts 27°
2026-04-24 10:26 -27.38787 153.12311 22 ft 18 kts 25°
2026-04-24 10:26 -27.38670 153.12376 22 ft 18 kts 28°
2026-04-24 10:26 -27.38573 153.12433 22 ft 12 kts 27°
2026-04-24 10:26 -27.38493 153.12473 22 ft 12 kts
2026-04-24 10:27 -27.38442 153.12405 22 ft 12 kts 286°
2026-04-24 10:27 -27.38431 153.12320 22 ft 4 kts 284°
2026-04-24 10:27 -27.38403 153.12288 22 ft 6 kts 325°
2026-04-24 10:27 -27.38374 153.12265 22 ft 0 kts 324°